Volver al catálogo

CZ-10B R/B

ActivoLEO
NORAD 69974·ROCKET BODY·🇨🇳 China

Lanzado Jul 10, 2026 desde Wenchang Space Launch Site

Loading…

Próximos Pases (próximas 24 horas)

TLE

ActualizadoSource: Space-Track

Época: Sep 14, 2026, 13:13 UTC

1 69974U 26158C   26257.55107508  .00000048  00000-0  42536-4 0  9996
2 69974  49.9634   2.8100 0197509  70.2508 291.9606 14.64341440  9717

Sigue CZ-10B R/B en tiempo real con AllMySat

Download on the App Store